Location: Barcelona
(41.3829°N, 2.1774°E)
Time: 01:08:27
(UTC+00:00)

ISS - Pass Details

Date: 27 April 2024
Orbit: 409 x 414 km, 51.6° (Epoch: 23 May)

Event Time Altitude Azimuth Distance (km) Brightness Sun altitude
Exits shadow 02:40:57 51° 6° (N) 520 -3.1 -21.9°
Drops below altitude 10° 02:43:46 10° 48° (NE) 1,478 0.2 -21.5°
Sets 02:45:53 0° 53° (NE) 2,341 1.6 -21.2°
